| time (UTC) | temp F | wind direction | speed MPH | gust MPH | rain 1hr in | rain 24hr in | rain mn in | humidity % | barometer mb |
| 20260506044540 | 55 | 158 | 0.0 | 0.0 | 0.00 | 0.13 | 0.13 | 86 | 1006.9 |
| 20260506043031 | 55 | 158 | 0.0 | 0.0 | 0.00 | 0.13 | 0.13 | 86 | 1006.8 |
| 20260506041530 | 56 | 158 | 0.0 | 0.0 | 0.00 | 0.13 | 0.13 | 85 | 1006.9 |
| 20260506040030 | 56 | 158 | 0.0 | 0.0 | 0.00 | 0.13 | 0.13 | 85 | 1006.7 |
| 20260506034530 | 57 | 158 | 0.0 | 0.0 | 0.00 | 0.13 | 0.13 | 84 | 1006.7 |
| 20260506033035 | 57 | 158 | 0.0 | 0.0 | 0.00 | 0.13 | 0.13 | 83 | 1006.7 |
| 20260506031534 | 57 | 158 | 0.0 | 2.0 | 0.00 | 0.13 | 0.13 | 84 | 1007.1 |
| 20260506030054 | 58 | 158 | 2.0 | 4.0 | 0.00 | 0.13 | 0.13 | 84 | 1006.8 |
| 20260506024534 | 58 | 164 | 0.0 | 0.0 | 0.00 | 0.13 | 0.13 | 85 | 1007.0 |
| 20260506023030 | 58 | 165 | 0.0 | 0.0 | 0.00 | 0.13 | 0.13 | 86 | 1007.0 |
| 20260506021531 | 58 | 165 | 0.0 | 0.0 | 0.00 | 0.13 | 0.13 | 87 | 1007.0 |
| 20260506020027 | 58 | 165 | 0.0 | 0.0 | 0.00 | 0.13 | 0.13 | 87 | 1006.8 |
| 20260506014525 | 60 | 165 | 0.0 | 0.0 | 0.00 | 0.13 | 0.13 | 84 | 1006.6 |
| 20260506013024 | 60 | 165 | 0.0 | 0.0 | 0.00 | 0.13 | 0.13 | 82 | 1006.6 |
| 20260506011531 | 61 | 165 | 0.0 | 0.0 | 0.00 | 0.13 | 0.13 | 81 | 1006.4 |
| 20260506010022 | 61 | 165 | 0.0 | 0.0 | 0.00 | 0.13 | 0.13 | 79 | 1006.1 |
| 20260506004540 | 61 | 165 | 0.0 | 0.0 | 0.00 | 0.13 | 0.13 | 79 | 1006.1 |
| 20260506003031 | 63 | 165 | 0.0 | 0.0 | 0.00 | 0.13 | 0.13 | 77 | 1006.0 |
| 20260506001523 | 63 | 165 | 0.0 | 0.0 | 0.00 | 0.13 | 0.13 | 77 | 1005.8 |
| 20260506000024 | 63 | 165 | 0.0 | 0.0 | 0.00 | 0.13 | 0.13 | 75 | 1005.7 |
| 20260505234520 | 63 | 165 | 0.0 | 0.0 | 0.00 | 0.13 | 0.13 | 76 | 1005.6 |
| 20260505233023 | 65 | 165 | 0.0 | 0.0 | 0.00 | 0.13 | 0.13 | 71 | 1005.7 |
| 20260505231526 | 65 | 121 | 0.0 | 0.0 | 0.00 | 0.13 | 0.13 | 71 | 1005.8 |
| 20260505230021 | 65 | 121 | 0.0 | 0.0 | 0.00 | 0.13 | 0.13 | 73 | 1005.6 |
| 20260505224517 | 65 | 121 | 0.0 | 0.0 | 0.00 | 0.13 | 0.13 | 72 | 1005.6 |
| 20260505223017 | 66 | 121 | 0.0 | 0.0 | 0.00 | 0.13 | 0.13 | 76 | 1005.8 |
| 20260505221519 | 67 | 121 | 0.0 | 0.0 | 0.00 | 0.13 | 0.13 | 74 | 1005.5 |
| 20260505220017 | 66 | 121 | 0.0 | 0.0 | 0.00 | 0.13 | 0.13 | 77 | 1005.3 |
| 20260505214517 | 65 | 121 | 0.0 | 0.0 | 0.02 | 0.13 | 0.13 | 79 | 1005.2 |
| 20260505213016 | 63 | 121 | 0.0 | 0.0 | 0.03 | 0.13 | 0.13 | 83 | 1005.2 |
| 20260505211516 | 62 | 121 | 0.0 | 0.0 | 0.03 | 0.13 | 0.13 | 84 | 1005.0 |
| 20260505210016 | 62 | 121 | 0.0 | 0.0 | 0.03 | 0.13 | 0.13 | 82 | 1005.1 |
| 20260505204516 | 65 | 155 | 1.0 | 14.0 | 0.02 | 0.12 | 0.12 | 70 | 1005.4 |
| 20260505203024 | 69 | 121 | 0.0 | 12.0 | 0.00 | 0.10 | 0.10 | 59 | 1004.6 |
| 20260505201515 | 71 | 327 | 1.0 | 16.0 | 0.00 | 0.10 | 0.10 | 57 | 1004.5 |
| 20260505200015 | 72 | 311 | 2.0 | 15.0 | 0.00 | 0.10 | 0.10 | 50 | 1004.4 |
| 20260505194513 | 71 | 342 | 4.0 | 8.0 | 0.00 | 0.10 | 0.10 | 62 | 1004.7 |
| 20260505193014 | 69 | 311 | 0.0 | 2.0 | 0.05 | 0.10 | 0.10 | 73 | 1004.9 |
| 20260505191513 | 65 | 311 | 0.0 | 8.0 | 0.07 | 0.10 | 0.10 | 79 | 1005.2 |
| 20260505190021 | 63 | 309 | 0.0 | 5.0 | 0.07 | 0.10 | 0.10 | 85 | 1005.3 |
| 20260505184517 | 61 | 307 | 3.0 | 8.0 | 0.07 | 0.10 | 0.10 | 84 | 1005.4 |
| 20260505183010 | 64 | 318 | 8.0 | 25.0 | 0.05 | 0.08 | 0.08 | 72 | 1005.6 |
| 20260505181510 | 72 | 123 | 3.0 | 11.0 | 0.00 | 0.03 | 0.03 | 43 | 1004.3 |
| 20260505180009 | 74 | 153 | 4.0 | 15.0 | 0.00 | 0.03 | 0.03 | 42 | 1003.9 |
| 20260505174506 | 74 | 113 | 1.0 | 9.0 | 0.00 | 0.03 | 0.03 | 43 | 1004.2 |
| 20260505173004 | 73 | 201 | 1.0 | 14.0 | 0.00 | 0.03 | 0.03 | 45 | 1004.4 |
| 20260505171505 | 72 | 33 | 0.0 | 9.0 | 0.00 | 0.03 | 0.03 | 45 | 1004.7 |
| 20260505170002 | 71 | 140 | 3.0 | 11.0 | 0.00 | 0.03 | 0.03 | 48 | 1005.0 |
| 20260505164502 | 71 | 132 | 2.0 | 14.0 | 0.00 | 0.03 | 0.03 | 49 | 1005.0 |
| 20260505163002 | 70 | 153 | 1.0 | 13.0 | 0.00 | 0.03 | 0.03 | 49 | 1004.8 |
| 20260505161603 | 71 | 138 | 1.0 | 8.0 | 0.00 | 0.03 | 0.03 | 48 | 1004.8 |
| 20260505153105 | 71 | 301 | 3.0 | 14.0 | 0.00 | 0.03 | 0.03 | 47 | 1005.5 |
| 20260505151558 | 72 | 343 | 3.0 | 11.0 | 0.00 | 0.03 | 0.03 | 46 | 1005.7 |
| 20260505124534 | 66 | 120 | 0.0 | 4.0 | 0.00 | 0.03 | 0.03 | 61 | 1006.0 |
| 20260505123042 | 64 | 146 | 0.0 | 12.0 | 0.00 | 0.03 | 0.03 | 64 | 1006.1 |
| 20260505121529 | 62 | 165 | 0.0 | 10.0 | 0.00 | 0.03 | 0.03 | 68 | 1006.4 |
| 20260505120038 | 60 | 105 | 0.0 | 12.0 | 0.00 | 0.03 | 0.03 | 71 | 1006.4 |
| 20260505114525 | 59 | 151 | 1.0 | 11.0 | 0.00 | 0.03 | 0.03 | 71 | 1006.2 |
| 20260505113021 | 59 | 109 | 0.0 | 7.0 | 0.00 | 0.03 | 0.03 | 75 | 1006.2 |
| 20260505111529 | 57 | 116 | 0.0 | 4.0 | 0.00 | 0.03 | 0.03 | 78 | 1005.9 |
| 20260505101514 | 57 | 111 | 0.0 | 4.0 | 0.03 | 0.03 | 0.03 | 79 | 1005.5 |
| 20260505100012 | 57 | 128 | 2.0 | 9.0 | 0.03 | 0.03 | 0.03 | 79 | 1005.5 |
| 20260505094508 | 59 | 121 | 4.0 | 18.0 | 0.03 | 0.03 | 0.03 | 72 | 1005.8 |
| 20260505093005 | 59 | 111 | 1.0 | 8.0 | 0.00 | 0.00 | 0.00 | 67 | 1005.6 |
| 20260505091501 | 59 | 107 | 3.0 | 8.0 | 0.00 | 0.00 | 0.00 | 66 | 1005.5 |
| 20260505090001 | 60 | 106 | 0.0 | 4.0 | 0.00 | 0.00 | 0.00 | 64 | 1005.7 |
| 20260505084501 | 60 | 103 | 0.0 | 8.0 | 0.00 | 0.00 | 0.00 | 64 | 1005.9 |
| 20260505083001 | 60 | 138 | 0.0 | 5.0 | 0.00 | 0.00 | 0.00 | 63 | 1005.7 |
| 20260505081501 | 61 | 106 | 0.0 | 8.0 | 0.00 | 0.00 | 0.00 | 62 | 1005.2 |
| 20260505080106 | 60 | 123 | 0.0 | 11.0 | 0.00 | 0.00 | 0.00 | 63 | 1005.4 |
| 20260505074600 | 60 | 119 | 0.0 | 7.0 | 0.00 | 0.00 | 0.00 | 63 | 1005.3 |
| 20260505073103 | 61 | 117 | 3.0 | 8.0 | 0.00 | 0.00 | 0.00 | 62 | 1005.2 |
| 20260505071615 | 61 | 114 | 0.0 | 4.0 | 0.00 | 0.00 | 0.00 | 63 | 1005.4 |
| 20260505070104 | 61 | 168 | 0.0 | 5.0 | 0.00 | 0.00 | 0.00 | 62 | 1005.3 |
| 20260505064610 | 61 | 145 | 1.0 | 6.0 | 0.00 | 0.00 | 0.00 | 62 | 1005.3 |
| 20260505063101 | 61 | 149 | 1.0 | 5.0 | 0.00 | 0.00 | 0.00 | 62 | 1005.5 |
| 20260505061604 | 61 | 148 | 0.0 | 4.0 | 0.00 | 0.00 | 0.00 | 62 | 1005.4 |
| 20260505060103 | 61 | 143 | 0.0 | 5.0 | 0.00 | 0.00 | 0.00 | 62 | 1005.6 |
| 20260505054601 | 62 | 186 | 0.0 | 10.0 | 0.00 | 0.00 | 0.00 | 61 | 1005.8 |
| 20260505053059 | 62 | 121 | 1.0 | 6.0 | 0.00 | 0.00 | 0.00 | 61 | 1006.0 |